EW9496 Weather Reports


Display with metric or nautical units.
time (UTC)temp
F
wind
direction
speed
MPH
gust
MPH
rain 1hr
in
rain 24hr
in
rain mn
in
humidity
%
barometer
mb
20240420123100 68 251 2.0 7.0 0.00 0.00 0.00 82 1014.1
20240420121610 0 0.0 0.0 0.00 0.00 0.00 1014.2
20240420120051 0 0.0 0.0 0.00 0.00 0.00 1014.1
20240420114553 0 0.0 0.0 0.00 0.00 0.00 1014.2
20240420113057 0 0.0 0.0 0.00 0.00 0.00 1014.0
20240420111538 0 0.0 0.0 0.00 0.00 0.00 1013.7
20240420110035 0 0.0 0.0 0.00 0.00 0.00 1013.7
20240420104532 0 0.0 0.0 0.00 0.00 0.00 1013.6
20240420103026 0 0.0 0.0 0.00 0.00 0.00 1013.3
20240420101521 0 0.0 0.0 0.00 0.00 0.00 1013.4
20240420100017 0 0.0 0.0 0.00 0.00 0.00 1013.4
20240420094514 0 0.0 0.0 0.00 0.00 0.00 1013.4
20240420093008 0 0.0 0.0 0.00 0.00 0.00 1013.3
20240420091503 0 0.0 0.0 0.00 0.00 0.00 1013.5
20240420090102 0 0.0 0.0 0.00 0.00 0.00 1013.4
20240420084554 0 0.0 0.0 0.00 0.00 0.00 1013.4
20240420083050 0 0.0 0.0 0.00 0.00 0.00 1013.4
20240420081554 0 0.0 0.0 0.00 0.00 0.00 1013.4
20240420080041 0 0.0 0.0 0.00 0.00 0.00 1013.6
20240420074541 0 0.0 0.0 0.00 0.00 0.00 1013.5
20240420073032 0 0.0 0.0 0.00 0.00 0.00 1013.6
20240420071533 0 0.0 0.0 0.00 0.00 0.00 1013.6
20240420070024 0 0.0 0.0 0.00 0.00 0.00 1013.5
20240420064520 0 0.0 0.0 0.00 0.00 0.00 1013.6
20240420063030 0 0.0 0.0 0.00 0.00 0.00 1013.7
20240420061510 0 0.0 0.0 0.00 0.00 0.00 1013.9
20240420060007 0 0.0 0.0 0.00 0.00 0.00 1014.0
20240420054501 0 0.0 0.0 0.00 0.00 0.00 1014.2
20240420053106 0 0.0 0.0 0.00 0.00 0.00 1014.3
20240420051555 0 0.0 0.0 0.00 0.00 0.00 1014.5
20240420050048 0 0.0 0.0 0.00 0.00 0.00 1014.6
20240420044544 0 0.0 0.0 0.00 0.00 0.00 1014.8
20240420043040 0 0.0 0.0 0.00 0.00 0.00 1015.0
20240420041537 0 0.0 0.0 0.00 0.00 0.00 1015.0
20240420040030 0 0.0 0.0 0.00 0.00 0.00 1015.0
20240420034526 0 0.0 0.0 0.00 0.00 0.00 1015.2
20240420033022 0 0.0 0.0 0.00 0.00 0.00 1015.3
20240420031519 0 0.0 0.0 0.00 0.00 0.00 1015.4
20240420030024 0 0.0 0.0 0.00 0.00 0.00 1015.6
20240420024511 58 55 5.0 10.0 0.00 0.00 0.00 72 1015.7
20240420023011 58 54 5.0 11.0 0.00 0.00 0.00 72 1015.8
20240420021508 58 69 4.0 10.0 0.00 0.00 0.00 72 1016.0
20240420020017 58 22 6.0 11.0 0.00 0.00 0.00 72 1016.1
20240420014507 58 20 4.0 10.0 0.00 0.00 0.00 71 1016.2
20240420013005 57 43 3.0 9.0 0.00 0.00 0.00 71 1016.1
20240420011505 57 42 3.0 11.0 0.00 0.00 0.00 70 1016.2
20240420010004 57 35 4.0 6.0 0.00 0.00 0.00 70 1016.0
20240420004504 57 49 3.0 7.0 0.00 0.00 0.00 69 1016.1
20240420003002 57 53 4.0 8.0 0.00 0.00 0.00 69 1015.7
20240420001503 57 44 2.0 10.0 0.00 0.00 0.00 69 1015.8
20240420000001 57 95 4.0 8.0 0.00 0.00 0.00 68 1015.7
20240419234501 57 64 3.0 9.0 0.00 0.00 0.00 67 1015.6
20240419233002 57 61 4.0 8.0 0.00 0.00 0.00 66 1015.5
20240419231600 58 63 3.0 8.0 0.00 0.00 0.00 65 1015.3
20240419230115 59 82 3.0 8.0 0.00 0.00 0.00 64 1015.3
20240419224600 60 64 4.0 9.0 0.00 0.00 0.00 63 1015.1
20240419223057 61 95 4.0 10.0 0.00 0.00 0.00 61 1015.1
20240419221607 62 64 4.0 7.0 0.00 0.00 0.00 60 1015.2
20240419220055 62 107 3.0 9.0 0.00 0.00 0.00 61 1015.3
20240419214558 62 102 2.0 9.0 0.00 0.00 0.00 60 1015.4
20240419213108 63 39 5.0 10.0 0.00 0.00 0.00 59 1015.4
20240419211555 63 13 4.0 9.0 0.00 0.00 0.00 59 1015.4
20240419210057 63 77 4.0 9.0 0.00 0.00 0.00 60 1015.3
20240419204553 63 58 5.0 9.0 0.00 0.00 0.00 58 1015.3
20240419203105 63 57 4.0 10.0 0.00 0.00 0.00 59 1015.1
20240419201550 63 93 3.0 9.0 0.00 0.00 0.00 59 1015.2
20240419200047 63 46 6.0 10.0 0.00 0.00 0.00 59 1015.3
20240419194545 62 18 8.0 13.0 0.00 0.00 0.00 60 1015.5
20240419193043 61 94 5.0 12.0 0.00 0.00 0.00 61 1015.7
20240419191547 60 26 6.0 16.0 0.00 0.00 0.00 62 1015.9
20240419190039 61 38 7.0 15.0 0.00 0.00 0.00 61 1016.2
20240419184538 61 68 8.0 15.0 0.00 0.00 0.00 61 1016.3
20240419183037 61 44 7.0 14.0 0.00 0.00 0.00 61 1016.3
20240419181537 62 82 6.0 15.0 0.00 0.00 0.00 60 1016.5
20240419180041 61 74 7.0 16.0 0.00 0.00 0.00 60 1016.7
20240419174538 61 13 8.0 17.0 0.00 0.00 0.00 61 1016.8
20240419173034 61 42 9.0 16.0 0.00 0.00 0.00 61 1017.0
20240419171533 60 78 9.0 18.0 0.00 0.00 0.00 62 1016.9
20240419170032 60 49 8.0 18.0 0.00 0.00 0.00 61 1016.9
20240419164531 61 43 12.0 19.0 0.00 0.00 0.00 61 1017.0
20240419163030 60 5 9.0 17.0 0.00 0.00 0.00 62 1017.3
20240419161529 60 355 8.0 16.0 0.00 0.00 0.00 62 1017.4
20240419160128 60 46 10.0 18.0 0.00 0.00 0.00 63 1017.5
20240419154527 59 38 9.0 17.0 0.00 0.00 0.00 63 1017.9
20240419153026 60 83 7.0 17.0 0.00 0.00 0.00 63 1018.1
20240419151526 59 143 5.0 16.0 0.00 0.00 0.00 64 1018.1
20240419150029 59 42 9.0 21.0 0.00 0.00 0.00 64 1017.8
20240419144534 58 11 9.0 20.0 0.00 0.00 0.00 65 1017.7
20240419143029 58 17 7.0 19.0 0.00 0.00 0.00 66 1017.8
20240419141520 58 17 10.0 19.0 0.00 0.00 0.00 66 1017.7
20240419140020 57 90 6.0 19.0 0.00 0.00 0.00 67 1017.7
20240419134520 57 18 10.0 16.0 0.00 0.00 0.00 68 1017.5
20240419133016 56 40 8.0 16.0 0.00 0.00 0.00 69 1017.4
20240419131515 56 35 7.0 17.0 0.00 0.00 0.00 69 1017.4
20240419130016 56 63 9.0 15.0 0.00 0.00 0.00 69 1017.5
20240419124522 56 64 9.0 17.0 0.00 0.00 0.00 70 1017.4